Time,TemperatureF,DewpointF,PressureIn,WindDirection,WindDirectionDegrees,WindSpeedMPH,WindSpeedGustMPH,Humidity,HourlyPrecipIn,Conditions,Clouds,dailyrainin,SoftwareType,DateUTC
2013-06-05 00:02:00,53.6,27.5,29.53,WNW,293,0.3,1.3,36,-99.99,,,-99.99,WSDL version 342,2013-06-05 04:02:00,
2013-06-05 00:03:00,53.5,27.5,29.53,WNW,293,0.0,1.3,37,-99.99,,,-99.99,WSDL version 342,2013-06-05 04:03:00,
2013-06-05 00:04:00,53.5,27.6,29.53,WNW,293,0.0,1.3,37,-99.99,,,-99.99,WSDL version 342,2013-06-05 04:04:00,
2013-06-05 00:06:00,53.4,27.8,29.53,WNW,293,0.7,1.6,37,-99.99,,,-99.99,WSDL version 342,2013-06-05 04:06:00,
2013-06-05 00:11:00,53.4,27.8,29.53,WNW,293,0.9,1.6,37,-99.99,,,-99.99,WSDL version 342,2013-06-05 04:11:00,
2013-06-05 00:16:00,53.4,27.8,29.53,WNW,293,0.0,1.6,37,-99.99,,,-99.99,WSDL version 342,2013-06-05 04:16:00,
2013-06-05 00:21:00,53.2,27.7,29.53,WNW,293,1.2,1.6,37,-99.99,,,-99.99,WSDL version 342,2013-06-05 04:21:00,
2013-06-05 00:26:00,53.1,28.0,29.53,WNW,300,1.0,2.0,38,-99.99,,,-99.99,WSDL version 342,2013-06-05 04:26:00,
2013-06-05 00:32:00,53.1,28.1,29.53,WNW,293,0.7,2.0,38,-99.99,,,-99.99,WSDL version 342,2013-06-05 04:32:00,
2013-06-05 00:37:00,53.1,28.1,29.53,WNW,293,1.0,2.0,38,-99.99,,,-99.99,WSDL version 342,2013-06-05 04:37:00,
2013-06-05 00:42:00,52.9,28.0,29.53,WNW,293,1.3,1.3,38,-99.99,,,-99.99,WSDL version 342,2013-06-05 04:42:00,
2013-06-05 00:47:00,52.7,27.9,29.53,WNW,293,1.2,2.0,38,-99.99,,,-99.99,WSDL version 342,2013-06-05 04:47:00,
2013-06-05 00:52:00,52.7,28.3,29.53,West,274,1.0,2.0,39,-99.99,,,-99.99,WSDL version 342,2013-06-05 04:52:00,
2013-06-05 00:57:00,52.4,28.2,29.53,WNW,293,0.8,2.2,39,-99.99,,,-99.99,WSDL version 342,2013-06-05 04:57:00,
2013-06-05 01:02:00,52.3,28.1,29.53,WNW,293,0.9,2.2,39,-99.99,,,-99.99,WSDL version 342,2013-06-05 05:02:00,
2013-06-05 01:07:00,52.2,28.0,29.53,West,278,1.1,2.0,39,-99.99,,,-99.99,WSDL version 342,2013-06-05 05:07:00,
2013-06-05 01:12:00,52.2,27.7,29.53,NW,320,1.1,2.0,38,-99.99,,,-99.99,WSDL version 342,2013-06-05 05:12:00,
2013-06-05 01:17:00,52.2,27.6,29.53,NW,315,1.3,2.0,38,-99.99,,,-99.99,WSDL version 342,2013-06-05 05:17:00,
2013-06-05 01:22:00,52.1,27.9,29.53,WNW,287,1.4,2.2,39,-99.99,,,-99.99,WSDL version 342,2013-06-05 05:22:00,
2013-06-05 01:27:00,51.9,27.7,29.53,WNW,293,2.0,2.5,39,-99.99,,,-99.99,WSDL version 342,2013-06-05 05:27:00,
2013-06-05 01:32:00,51.8,28.1,29.53,West,270,2.2,3.1,40,-99.99,,,-99.99,WSDL version 342,2013-06-05 05:32:00,
2013-06-05 01:37:00,51.6,28.7,29.53,WNW,293,1.9,3.1,41,-99.99,,,-99.99,WSDL version 342,2013-06-05 05:37:00,
2013-06-05 01:42:00,51.4,29.1,29.50,West,281,0.0,2.5,42,-99.99,,,-99.99,WSDL version 342,2013-06-05 05:42:00,
2013-06-05 01:47:00,51.5,29.0,29.50,NNW,338,0.0,2.5,42,-99.99,,,-99.99,WSDL version 342,2013-06-05 05:47:00,
2013-06-05 01:52:00,51.9,28.6,29.50,NNW,338,0.0,2.5,40,-99.99,,,-99.99,WSDL version 342,2013-06-05 05:52:00,
2013-06-05 01:57:00,51.9,28.6,29.50,West,270,1.3,1.3,40,-99.99,,,-99.99,WSDL version 342,2013-06-05 05:57:00,
2013-06-05 02:02:00,51.9,28.3,29.50,West,270,1.3,1.3,40,-99.99,,,-99.99,WSDL version 342,2013-06-05 06:02:00,
2013-06-05 02:07:00,52.1,28.5,29.50,WNW,293,2.7,2.7,40,-99.99,,,-99.99,WSDL version 342,2013-06-05 06:07:00,
2013-06-05 02:12:00,52.0,28.4,29.53,WNW,293,2.0,2.7,40,-99.99,,,-99.99,WSDL version 342,2013-06-05 06:12:00,
2013-06-05 02:17:00,52.1,28.1,29.53,WNW,293,2.0,2.7,39,-99.99,,,-99.99,WSDL version 342,2013-06-05 06:17:00,
2013-06-05 02:22:00,52.7,27.4,29.53,WNW,293,2.0,2.7,37,-99.99,,,-99.99,WSDL version 342,2013-06-05 06:22:00,
2013-06-05 02:27:00,52.9,27.1,29.53,West,281,1.1,2.7,36,-99.99,,,-99.99,WSDL version 342,2013-06-05 06:27:00,
2013-06-05 02:32:00,52.7,26.5,29.53,WNW,287,0.0,2.7,36,-99.99,,,-99.99,WSDL version 342,2013-06-05 06:32:00,
2013-06-05 02:37:00,52.5,26.4,29.53,West,278,1.0,1.6,36,-99.99,,,-99.99,WSDL version 342,2013-06-05 06:37:00,
2013-06-05 02:42:00,52.9,26.2,29.53,WNW,293,1.3,2.0,35,-99.99,,,-99.99,WSDL version 342,2013-06-05 06:42:00,
2013-06-05 02:47:00,52.9,25.6,29.53,West,270,1.3,2.0,34,-99.99,,,-99.99,WSDL version 342,2013-06-05 06:47:00,
2013-06-05 02:52:00,52.8,25.5,29.53,West,270,1.6,1.6,35,-99.99,,,-99.99,WSDL version 342,2013-06-05 06:52:00,
2013-06-05 02:57:00,52.5,26.2,29.56,West,273,0.5,1.6,36,-99.99,,,-99.99,WSDL version 342,2013-06-05 06:57:00,
2013-06-05 03:03:00,52.1,25.5,29.56,WSW,257,0.0,1.3,35,-99.99,,,-99.99,WSDL version 342,2013-06-05 07:03:00,
2013-06-05 03:08:00,51.7,24.8,29.56,West,270,0.9,1.6,36,-99.99,,,-99.99,WSDL version 342,2013-06-05 07:08:00,
2013-06-05 03:13:00,51.6,25.5,29.53,WNW,286,0.9,1.6,36,-99.99,,,-99.99,WSDL version 342,2013-06-05 07:13:00,
2013-06-05 03:18:00,51.3,25.3,29.53,West,264,0.6,1.6,36,-99.99,,,-99.99,WSDL version 342,2013-06-05 07:18:00,
2013-06-05 03:23:00,51.1,25.1,29.53,WSW,254,1.2,2.0,36,-99.99,,,-99.99,WSDL version 342,2013-06-05 07:23:00,
2013-06-05 03:28:00,51.1,25.1,29.53,WSW,257,1.6,2.5,36,-99.99,,,-99.99,WSDL version 342,2013-06-05 07:28:00,
2013-06-05 03:33:00,51.1,25.1,29.53,WSW,240,1.3,2.5,36,-99.99,,,-99.99,WSDL version 342,2013-06-05 07:33:00,
2013-06-05 03:38:00,50.9,25.3,29.53,West,262,1.3,2.2,37,-99.99,,,-99.99,WSDL version 342,2013-06-05 07:38:00,
2013-06-05 03:43:00,50.8,25.4,29.53,West,259,1.4,2.2,37,-99.99,,,-99.99,WSDL version 342,2013-06-05 07:43:00,
2013-06-05 03:48:00,50.7,25.4,29.53,WSW,250,1.5,2.2,37,-99.99,,,-99.99,WSDL version 342,2013-06-05 07:48:00,
2013-06-05 03:53:00,50.6,25.3,29.53,WNW,289,1.0,2.2,37,-99.99,,,-99.99,WSDL version 342,2013-06-05 07:53:00,
2013-06-05 03:58:00,50.8,25.4,29.53,WNW,285,1.6,2.7,37,-99.99,,,-99.99,WSDL version 342,2013-06-05 07:58:00,
2013-06-05 04:03:00,50.9,25.1,29.53,WSW,238,0.5,2.7,36,-99.99,,,-99.99,WSDL version 342,2013-06-05 08:03:00,
2013-06-05 04:08:00,51.1,25.1,29.53,SSW,211,0.5,2.2,36,-99.99,,,-99.99,WSDL version 342,2013-06-05 08:08:00,
2013-06-05 04:13:00,51.1,25.1,29.56,WSW,244,0.4,2.0,36,-99.99,,,-99.99,WSDL version 342,2013-06-05 08:13:00,
2013-06-05 04:18:00,50.9,24.8,29.56,WSW,255,0.0,2.0,36,-99.99,,,-99.99,WSDL version 342,2013-06-05 08:18:00,
2013-06-05 04:23:00,50.6,24.6,29.56,West,270,0.9,1.6,36,-99.99,,,-99.99,WSDL version 342,2013-06-05 08:23:00,
2013-06-05 04:28:00,50.2,24.3,29.56,SW,225,0.0,1.3,36,-99.99,,,-99.99,WSDL version 342,2013-06-05 08:28:00,
2013-06-05 04:33:00,50.0,24.0,29.56,SW,225,0.0,0.0,35,-99.99,,,-99.99,WSDL version 342,2013-06-05 08:33:00,
2013-06-05 04:38:00,50.0,23.4,29.56,SW,225,0.0,0.0,35,-99.99,,,-99.99,WSDL version 342,2013-06-05 08:38:00,
2013-06-05 04:43:00,50.0,23.4,29.53,WSW,248,0.0,0.0,35,-99.99,,,-99.99,WSDL version 342,2013-06-05 08:43:00,
2013-06-05 04:48:00,49.8,24.6,29.53,WSW,248,1.5,1.6,37,-99.99,,,-99.99,WSDL version 342,2013-06-05 08:48:00,
2013-06-05 04:53:00,49.6,24.4,29.53,WSW,248,0.0,1.6,37,-99.99,,,-99.99,WSDL version 342,2013-06-05 08:53:00,
2013-06-05 04:58:00,49.2,24.0,29.56,WSW,248,0.8,2.0,37,-99.99,,,-99.99,WSDL version 342,2013-06-05 08:58:00,
2013-06-05 05:03:00,49.0,23.9,29.56,WNW,293,0.4,2.0,37,-99.99,,,-99.99,WSDL version 342,2013-06-05 09:03:00,
2013-06-05 05:08:00,48.8,24.0,29.56,WNW,293,0.0,1.3,37,-99.99,,,-99.99,WSDL version 342,2013-06-05 09:08:00,
2013-06-05 05:13:00,48.7,24.0,29.56,WNW,293,1.4,2.0,38,-99.99,,,-99.99,WSDL version 342,2013-06-05 09:13:00,
2013-06-05 05:18:00,48.6,23.9,29.56,WNW,293,1.7,2.2,38,-99.99,,,-99.99,WSDL version 342,2013-06-05 09:18:00,
2013-06-05 05:23:00,48.3,23.9,29.56,WNW,293,1.1,2.2,38,-99.99,,,-99.99,WSDL version 342,2013-06-05 09:23:00,
2013-06-05 05:28:00,48.1,24.0,29.56,WNW,293,1.1,1.3,39,-99.99,,,-99.99,WSDL version 342,2013-06-05 09:28:00,
2013-06-05 05:33:00,47.9,24.2,29.56,WNW,293,1.2,1.6,39,-99.99,,,-99.99,WSDL version 342,2013-06-05 09:33:00,
2013-06-05 05:38:00,47.8,24.7,29.59,WNW,293,1.4,2.0,40,-99.99,,,-99.99,WSDL version 342,2013-06-05 09:38:00,
2013-06-05 05:43:00,47.7,25.2,29.59,WNW,293,1.7,2.5,42,-99.99,,,-99.99,WSDL version 342,2013-06-05 09:43:00,
2013-06-05 05:48:00,47.6,25.6,29.59,WNW,293,1.8,2.5,42,-99.99,,,-99.99,WSDL version 342,2013-06-05 09:48:00,
2013-06-05 05:53:00,47.3,25.7,29.59,WNW,293,1.5,2.2,43,-99.99,,,-99.99,WSDL version 342,2013-06-05 09:53:00,
2013-06-05 05:58:00,47.3,25.9,29.59,WNW,293,1.3,2.0,43,-99.99,,,-99.99,WSDL version 342,2013-06-05 09:58:00,
2013-06-05 06:03:00,47.1,26.3,29.59,WNW,293,1.5,2.2,44,-99.99,,,-99.99,WSDL version 342,2013-06-05 10:03:00,
2013-06-05 06:08:00,47.1,26.7,29.59,WNW,293,1.3,2.2,45,-99.99,,,-99.99,WSDL version 342,2013-06-05 10:08:00,
2013-06-05 06:13:00,47.0,27.5,29.59,WNW,293,1.1,2.2,47,-99.99,,,-99.99,WSDL version 342,2013-06-05 10:13:00,
2013-06-05 06:18:00,47.1,27.9,29.59,West,281,1.3,2.2,47,-99.99,,,-99.99,WSDL version 342,2013-06-05 10:18:00,
2013-06-05 06:23:00,47.1,27.9,29.62,WNW,293,1.3,2.2,47,-99.99,,,-99.99,WSDL version 342,2013-06-05 10:23:00,
2013-06-05 06:28:00,47.1,28.5,29.62,West,273,1.3,2.2,48,-99.99,,,-99.99,WSDL version 342,2013-06-05 10:28:00,
2013-06-05 06:34:00,47.3,28.6,29.62,West,270,1.2,2.2,48,-99.99,,,-99.99,WSDL version 342,2013-06-05 10:34:00,
2013-06-05 06:39:00,47.5,28.6,29.62,West,270,1.1,2.0,47,-99.99,,,-99.99,WSDL version 342,2013-06-05 10:39:00,
2013-06-05 06:44:00,47.8,28.9,29.62,West,270,0.0,1.3,48,-99.99,,,-99.99,WSDL version 342,2013-06-05 10:44:00,
2013-06-05 06:49:00,48.2,29.1,29.62,West,270,0.0,1.1,47,-99.99,,,-99.99,WSDL version 342,2013-06-05 10:49:00,
2013-06-05 06:54:00,48.6,29.4,29.62,West,270,0.0,0.0,47,-99.99,,,-99.99,WSDL version 342,2013-06-05 10:54:00,
2013-06-05 07:00:00,49.0,29.9,29.62,West,270,0.0,0.0,48,-99.99,,,-99.99,WSDL version 342,2013-06-05 11:00:00,
2013-06-05 07:05:00,49.6,30.7,29.62,West,270,0.4,1.3,48,-99.99,,,-99.99,WSDL version 342,2013-06-05 11:05:00,
2013-06-05 07:10:00,50.0,30.7,29.62,West,270,0.0,1.3,47,-99.99,,,-99.99,WSDL version 342,2013-06-05 11:10:00,
2013-06-05 07:15:00,50.5,31.0,29.62,West,270,0.0,0.9,47,-99.99,,,-99.99,WSDL version 342,2013-06-05 11:15:00,
2013-06-05 07:20:00,50.9,31.4,29.62,West,270,0.0,0.0,47,-99.99,,,-99.99,WSDL version 342,2013-06-05 11:20:00,
2013-06-05 07:25:00,51.3,31.2,29.62,West,270,0.0,1.1,46,-99.99,,,-99.99,WSDL version 342,2013-06-05 11:25:00,
2013-06-05 07:30:00,51.5,31.4,29.62,West,270,0.0,1.1,46,-99.99,,,-99.99,WSDL version 342,2013-06-05 11:30:00,
2013-06-05 07:36:00,52.1,32.0,29.62,West,270,0.4,1.3,46,-99.99,,,-99.99,WSDL version 342,2013-06-05 11:36:00,
2013-06-05 07:41:00,53.0,32.8,29.62,West,270,0.6,1.6,46,-99.99,,,-99.99,WSDL version 342,2013-06-05 11:41:00,
2013-06-05 07:46:00,54.0,33.4,29.62,West,270,0.0,1.6,45,-99.99,,,-99.99,WSDL version 342,2013-06-05 11:46:00,
2013-06-05 07:51:00,55.3,34.1,29.62,North,360,0.0,1.1,44,-99.99,,,-99.99,WSDL version 342,2013-06-05 11:51:00,
2013-06-05 07:57:00,56.2,33.8,29.62,WSW,248,0.0,0.0,42,-99.99,,,-99.99,WSDL version 342,2013-06-05 11:57:00,
2013-06-05 08:02:00,57.0,34.0,29.62,WSW,248,0.1,1.3,41,-99.99,,,-99.99,WSDL version 342,2013-06-05 12:02:00,
2013-06-05 08:07:00,58.1,33.6,29.62,NW,305,0.0,1.3,39,-99.99,,,-99.99,WSDL version 342,2013-06-05 12:07:00,
2013-06-05 08:13:00,59.3,33.0,29.62,North,356,1.7,3.6,36,-99.99,,,-99.99,WSDL version 342,2013-06-05 12:13:00,
2013-06-05 08:18:00,59.8,31.4,29.62,NNE,27,1.5,3.6,34,-99.99,,,-99.99,WSDL version 342,2013-06-05 12:18:00,
2013-06-05 08:24:00,60.8,30.8,29.59,East,93,1.8,3.4,31,-99.99,,,-99.99,WSDL version 342,2013-06-05 12:24:00,
2013-06-05 08:29:00,61.3,29.6,29.59,NW,321,1.1,2.7,30,-99.99,,,-99.99,WSDL version 342,2013-06-05 12:29:00,
2013-06-05 08:34:00,61.5,28.8,29.59,NE,48,0.6,2.0,28,-99.99,,,-99.99,WSDL version 342,2013-06-05 12:34:00,
2013-06-05 08:39:00,61.7,28.1,29.59,WNW,285,1.9,3.8,27,-99.99,,,-99.99,WSDL version 342,2013-06-05 12:39:00,
2013-06-05 08:44:00,61.9,27.1,29.62,West,266,1.1,3.8,26,-99.99,,,-99.99,WSDL version 342,2013-06-05 12:44:00,
2013-06-05 08:49:00,62.1,26.4,29.62,SSE,161,2.1,2.9,25,-99.99,,,-99.99,WSDL version 342,2013-06-05 12:49:00,
2013-06-05 08:54:00,62.4,26.4,29.62,NNW,340,2.0,2.9,26,-99.99,,,-99.99,WSDL version 342,2013-06-05 12:54:00,
2013-06-05 08:59:00,62.7,26.9,29.62,NE,56,1.6,2.9,25,-99.99,,,-99.99,WSDL version 342,2013-06-05 12:59:00,
2013-06-05 09:04:00,62.8,26.5,29.62,ENE,65,2.0,3.8,25,-99.99,,,-99.99,WSDL version 342,2013-06-05 13:04:00,
2013-06-05 09:10:00,63.0,26.3,29.62,SE,124,1.8,3.1,25,-99.99,,,-99.99,WSDL version 342,2013-06-05 13:10:00,
2013-06-05 09:15:00,63.1,26.5,29.62,NNW,332,1.6,3.4,25,-99.99,,,-99.99,WSDL version 342,2013-06-05 13:15:00,
2013-06-05 09:20:00,63.5,27.1,29.62,NNW,345,1.5,3.4,25,-99.99,,,-99.99,WSDL version 342,2013-06-05 13:20:00,
2013-06-05 09:25:00,63.9,26.9,29.65,SSW,199,1.5,3.1,25,-99.99,,,-99.99,WSDL version 342,2013-06-05 13:25:00,
2013-06-05 09:30:00,64.2,26.6,29.65,North,357,1.6,3.4,24,-99.99,,,-99.99,WSDL version 342,2013-06-05 13:30:00,
2013-06-05 09:35:00,64.4,26.9,29.65,West,278,1.6,3.4,24,-99.99,,,-99.99,WSDL version 342,2013-06-05 13:35:00,
2013-06-05 09:40:00,64.6,27.0,29.62,East,101,1.4,3.4,24,-99.99,,,-99.99,WSDL version 342,2013-06-05 13:40:00,
2013-06-05 09:45:00,64.9,27.2,29.62,North,349,1.8,3.4,24,-99.99,,,-99.99,WSDL version 342,2013-06-05 13:45:00,
2013-06-05 09:50:00,65.0,26.7,29.62,North,360,1.5,4.9,24,-99.99,,,-99.99,WSDL version 342,2013-06-05 13:50:00,
2013-06-05 09:55:00,65.4,27.7,29.62,ENE,58,1.5,4.9,24,-99.99,,,-99.99,WSDL version 342,2013-06-05 13:55:00,
2013-06-05 10:00:00,65.9,28.1,29.62,NE,48,1.5,2.9,24,-99.99,,,-99.99,WSDL version 342,2013-06-05 14:00:00,
2013-06-05 10:05:00,66.5,27.6,29.62,NNW,347,1.1,2.9,23,-99.99,,,-99.99,WSDL version 342,2013-06-05 14:05:00,
2013-06-05 10:10:00,67.3,29.3,29.59,North,6,1.9,2.9,24,-99.99,,,-99.99,WSDL version 342,2013-06-05 14:10:00,
2013-06-05 10:16:00,67.5,28.4,29.59,ESE,119,1.2,2.9,23,-99.99,,,-99.99,WSDL version 342,2013-06-05 14:16:00,
2013-06-05 10:21:00,67.1,27.9,29.59,ESE,116,1.4,2.9,23,-99.99,,,-99.99,WSDL version 342,2013-06-05 14:21:00,
2013-06-05 10:26:00,67.2,28.1,29.62,SSE,167,1.4,4.0,23,-99.99,,,-99.99,WSDL version 342,2013-06-05 14:26:00,
2013-06-05 10:32:00,67.3,27.9,29.62,NNE,29,1.5,2.7,23,-99.99,,,-99.99,WSDL version 342,2013-06-05 14:32:00,
2013-06-05 10:37:00,67.8,28.7,29.62,NNW,330,1.1,2.7,23,-99.99,,,-99.99,WSDL version 342,2013-06-05 14:37:00,
2013-06-05 10:42:00,67.9,28.3,29.59,ESE,103,1.5,3.4,22,-99.99,,,-99.99,WSDL version 342,2013-06-05 14:42:00,
2013-06-05 10:47:00,68.2,28.0,29.59,ENE,74,1.4,3.4,22,-99.99,,,-99.99,WSDL version 342,2013-06-05 14:47:00,
2013-06-05 10:52:00,68.4,28.1,29.59,ESE,106,1.6,3.6,22,-99.99,,,-99.99,WSDL version 342,2013-06-05 14:52:00,
2013-06-05 10:57:00,68.8,28.4,29.62,NE,42,1.1,3.6,22,-99.99,,,-99.99,WSDL version 342,2013-06-05 14:57:00,
2013-06-05 11:02:00,69.4,29.0,29.62,North,8,1.7,3.1,22,-99.99,,,-99.99,WSDL version 342,2013-06-05 15:02:00,
2013-06-05 11:07:00,69.8,29.2,29.62,SE,131,2.1,3.4,22,-99.99,,,-99.99,WSDL version 342,2013-06-05 15:07:00,
2013-06-05 11:12:00,69.7,28.0,29.62,SSW,203,1.6,3.4,20,-99.99,,,-99.99,WSDL version 342,2013-06-05 15:12:00,
2013-06-05 11:18:00,70.1,29.5,29.62,East,79,1.3,2.9,22,-99.99,,,-99.99,WSDL version 342,2013-06-05 15:18:00,
2013-06-05 11:23:00,70.7,28.2,29.62,SSE,158,2.3,3.4,19,-99.99,,,-99.99,WSDL version 342,2013-06-05 15:23:00,
2013-06-05 11:28:00,70.7,26.5,29.62,SE,131,1.2,3.4,19,-99.99,,,-99.99,WSDL version 342,2013-06-05 15:28:00,
2013-06-05 11:33:00,71.0,26.7,29.62,NNE,26,1.6,3.1,19,-99.99,,,-99.99,WSDL version 342,2013-06-05 15:33:00,
2013-06-05 11:38:00,71.4,27.0,29.62,SSE,167,1.7,3.1,19,-99.99,,,-99.99,WSDL version 342,2013-06-05 15:38:00,
2013-06-05 11:43:00,72.0,27.5,29.62,NE,55,1.4,3.1,19,-99.99,,,-99.99,WSDL version 342,2013-06-05 15:43:00,
2013-06-05 11:48:00,72.5,27.9,29.62,SE,132,1.6,3.1,19,-99.99,,,-99.99,WSDL version 342,2013-06-05 15:48:00,
2013-06-05 11:53:00,72.6,28.0,29.59,SSW,203,0.9,3.6,19,-99.99,,,-99.99,WSDL version 342,2013-06-05 15:53:00,
2013-06-05 11:58:00,73.1,28.0,29.59,NW,311,1.0,3.8,18,-99.99,,,-99.99,WSDL version 342,2013-06-05 15:58:00,
2013-06-05 12:03:00,73.8,27.7,29.59,NE,34,2.3,3.8,18,-99.99,,,-99.99,WSDL version 342,2013-06-05 16:03:00,
2013-06-05 12:09:00,73.9,25.0,29.62,ENE,68,0.7,3.6,16,-99.99,,,-99.99,WSDL version 342,2013-06-05 16:09:00,
2013-06-05 12:14:00,73.9,25.0,29.62,SW,225,2.2,3.4,16,-99.99,,,-99.99,WSDL version 342,2013-06-05 16:14:00,
2013-06-05 12:19:00,73.6,24.7,29.62,South,188,3.4,4.0,16,-99.99,,,-99.99,WSDL version 342,2013-06-05 16:19:00,
2013-06-05 12:24:00,74.5,25.1,29.59,NNW,328,0.5,4.0,15,-99.99,,,-99.99,WSDL version 342,2013-06-05 16:24:00,
2013-06-05 12:29:00,75.3,24.9,29.59,SSW,196,1.6,4.3,15,-99.99,,,-99.99,WSDL version 342,2013-06-05 16:29:00,
2013-06-05 12:34:00,75.9,24.9,29.59,SSE,148,1.4,4.3,15,-99.99,,,-99.99,WSDL version 342,2013-06-05 16:34:00,
2013-06-05 12:39:00,76.9,25.8,29.59,NE,48,1.3,3.4,15,-99.99,,,-99.99,WSDL version 342,2013-06-05 16:39:00,
2013-06-05 12:44:00,77.8,26.5,29.59,SSE,161,1.7,3.8,15,-99.99,,,-99.99,WSDL version 342,2013-06-05 16:44:00,
2013-06-05 12:49:00,77.6,26.3,29.59,South,180,1.6,3.8,15,-99.99,,,-99.99,WSDL version 342,2013-06-05 16:49:00,
2013-06-05 12:54:00,77.6,26.3,29.56,NNW,334,1.1,2.9,15,-99.99,,,-99.99,WSDL version 342,2013-06-05 16:54:00,
2013-06-05 12:59:00,78.3,26.9,29.56,NW,323,2.3,3.8,15,-99.99,,,-99.99,WSDL version 342,2013-06-05 16:59:00,
2013-06-05 13:04:00,78.2,26.8,29.56,NW,321,2.1,3.8,15,-99.99,,,-99.99,WSDL version 342,2013-06-05 17:04:00,
2013-06-05 13:09:00,78.6,27.1,29.56,NW,315,2.3,3.8,15,-99.99,,,-99.99,WSDL version 342,2013-06-05 17:09:00,
2013-06-05 13:14:00,78.7,27.2,29.56,WSW,248,1.9,3.8,15,-99.99,,,-99.99,WSDL version 342,2013-06-05 17:14:00,
2013-06-05 13:19:00,79.4,27.8,29.56,ESE,105,1.6,3.1,15,-99.99,,,-99.99,WSDL version 342,2013-06-05 17:19:00,
2013-06-05 13:24:00,79.7,28.0,29.56,WNW,286,1.2,3.1,15,-99.99,,,-99.99,WSDL version 342,2013-06-05 17:24:00,
2013-06-05 13:29:00,80.0,28.3,29.56,SE,141,2.0,3.6,15,-99.99,,,-99.99,WSDL version 342,2013-06-05 17:29:00,
2013-06-05 13:34:00,80.0,28.3,29.56,NW,315,1.5,3.6,15,-99.99,,,-99.99,WSDL version 342,2013-06-05 17:34:00,
2013-06-05 13:39:00,80.1,28.3,29.56,ENE,71,1.3,3.4,15,-99.99,,,-99.99,WSDL version 342,2013-06-05 17:39:00,
2013-06-05 13:44:00,80.9,27.3,29.56,SW,219,2.1,3.4,14,-99.99,,,-99.99,WSDL version 342,2013-06-05 17:44:00,
2013-06-05 13:50:00,81.2,27.5,29.56,NNE,25,2.1,3.6,14,-99.99,,,-99.99,WSDL version 342,2013-06-05 17:50:00,
2013-06-05 13:55:00,80.7,27.6,29.53,NNW,343,2.0,5.4,14,-99.99,,,-99.99,WSDL version 342,2013-06-05 17:55:00,
2013-06-05 14:00:00,81.5,27.8,29.53,SSE,161,2.3,5.4,14,-99.99,,,-99.99,WSDL version 342,2013-06-05 18:00:00,
2013-06-05 14:05:00,81.8,28.0,29.53,NE,48,2.5,4.0,14,-99.99,,,-99.99,WSDL version 342,2013-06-05 18:05:00,
2013-06-05 14:10:00,82.4,28.5,29.53,ESE,109,1.6,4.0,14,-99.99,,,-99.99,WSDL version 342,2013-06-05 18:10:00,
2013-06-05 14:15:00,83.5,29.4,29.53,NNE,15,2.5,3.1,14,-99.99,,,-99.99,WSDL version 342,2013-06-05 18:15:00,
2013-06-05 14:20:00,83.4,26.7,29.53,ESE,106,3.0,5.4,14,-99.99,,,-99.99,WSDL version 342,2013-06-05 18:20:00,
2013-06-05 14:25:00,83.4,29.3,29.56,NW,311,2.5,5.4,14,-99.99,,,-99.99,WSDL version 342,2013-06-05 18:25:00,
2013-06-05 14:30:00,84.8,28.6,29.56,NE,37,1.2,3.4,13,-99.99,,,-99.99,WSDL version 342,2013-06-05 18:30:00,
2013-06-05 14:35:00,85.8,29.3,29.56,North,11,1.7,3.8,13,-99.99,,,-99.99,WSDL version 342,2013-06-05 18:35:00,
2013-06-05 14:40:00,85.9,28.4,29.56,SW,233,1.4,3.8,13,-99.99,,,-99.99,WSDL version 342,2013-06-05 18:40:00,
2013-06-05 14:45:00,85.3,28.9,29.56,ENE,74,2.4,5.4,13,-99.99,,,-99.99,WSDL version 342,2013-06-05 18:45:00,
2013-06-05 14:50:00,86.0,29.5,29.56,ESE,116,1.7,6.0,13,-99.99,,,-99.99,WSDL version 342,2013-06-05 18:50:00,
2013-06-05 14:55:00,85.0,28.7,29.56,North,354,2.2,6.3,13,-99.99,,,-99.99,WSDL version 342,2013-06-05 18:55:00,
2013-06-05 15:00:00,85.8,29.3,29.56,SE,146,1.6,6.3,13,-99.99,,,-99.99,WSDL version 342,2013-06-05 19:00:00,
2013-06-05 15:05:00,85.4,29.0,29.56,NE,42,3.0,4.3,13,-99.99,,,-99.99,WSDL version 342,2013-06-05 19:05:00,
2013-06-05 15:10:00,86.4,29.8,29.53,NE,38,2.1,4.3,13,-99.99,,,-99.99,WSDL version 342,2013-06-05 19:10:00,
2013-06-05 15:15:00,87.2,30.4,29.53,NNE,18,2.5,4.0,13,-99.99,,,-99.99,WSDL version 342,2013-06-05 19:15:00,
2013-06-05 15:20:00,87.4,30.6,29.53,SSW,195,1.3,4.0,13,-99.99,,,-99.99,WSDL version 342,2013-06-05 19:20:00,
2013-06-05 15:25:00,87.2,30.4,29.53,ESE,107,1.0,2.9,13,-99.99,,,-99.99,WSDL version 342,2013-06-05 19:25:00,
2013-06-05 15:30:00,86.7,30.0,29.53,SE,145,2.7,4.7,13,-99.99,,,-99.99,WSDL version 342,2013-06-05 19:30:00,
2013-06-05 15:35:00,85.7,29.3,29.53,SE,143,3.4,4.7,13,-99.99,,,-99.99,WSDL version 342,2013-06-05 19:35:00,
2013-06-05 15:40:00,84.8,28.6,29.53,SW,233,2.9,4.0,13,-99.99,,,-99.99,WSDL version 342,2013-06-05 19:40:00,
2013-06-05 15:45:00,85.4,29.0,29.53,SSE,154,1.0,4.3,13,-99.99,,,-99.99,WSDL version 342,2013-06-05 19:45:00,
2013-06-05 15:50:00,86.0,29.5,29.53,SE,146,2.0,4.3,13,-99.99,,,-99.99,WSDL version 342,2013-06-05 19:50:00,
2013-06-05 15:55:00,86.8,30.1,29.53,East,101,1.3,3.6,13,-99.99,,,-99.99,WSDL version 342,2013-06-05 19:55:00,
2013-06-05 16:01:00,86.4,29.8,29.53,NE,41,2.4,3.6,13,-99.99,,,-99.99,WSDL version 342,2013-06-05 20:01:00,
2013-06-05 16:07:00,86.6,30.0,29.53,ENE,65,1.4,3.6,13,-99.99,,,-99.99,WSDL version 342,2013-06-05 20:07:00,
2013-06-05 16:12:00,87.1,30.3,29.50,SE,131,1.1,2.9,13,-99.99,,,-99.99,WSDL version 342,2013-06-05 20:12:00,
2013-06-05 16:17:00,86.7,30.0,29.50,SSE,148,2.3,3.1,13,-99.99,,,-99.99,WSDL version 342,2013-06-05 20:17:00,
2013-06-05 16:23:00,86.7,30.1,29.50,SSW,196,1.0,3.1,13,-99.99,,,-99.99,WSDL version 342,2013-06-05 20:23:00,
2013-06-05 16:28:00,87.4,30.6,29.53,SE,131,1.2,2.9,13,-99.99,,,-99.99,WSDL version 342,2013-06-05 20:28:00,
2013-06-05 16:33:00,87.8,30.9,29.53,SE,141,1.7,2.9,13,-99.99,,,-99.99,WSDL version 342,2013-06-05 20:33:00,
2013-06-05 16:38:00,88.2,31.2,29.53,NNW,329,0.4,2.9,13,-99.99,,,-99.99,WSDL version 342,2013-06-05 20:38:00,
2013-06-05 16:43:00,88.5,31.4,29.53,NE,51,2.0,2.9,13,-99.99,,,-99.99,WSDL version 342,2013-06-05 20:43:00,
2013-06-05 16:48:00,87.6,30.8,29.53,NNE,31,1.5,3.1,13,-99.99,,,-99.99,WSDL version 342,2013-06-05 20:48:00,
2013-06-05 16:53:00,85.2,28.9,29.56,SW,215,0.4,3.1,13,-99.99,,,-99.99,WSDL version 342,2013-06-05 20:53:00,
2013-06-05 16:58:00,83.9,29.2,29.56,West,264,2.0,3.4,13,-99.99,,,-99.99,WSDL version 342,2013-06-05 20:58:00,
2013-06-05 17:05:00,84.4,28.3,29.56,North,352,1.7,3.4,13,-99.99,,,-99.99,WSDL version 342,2013-06-05 21:05:00,
2013-06-05 17:10:00,84.3,28.9,29.50,NNW,335,2.4,4.3,14,-99.99,,,-99.99,WSDL version 342,2013-06-05 21:10:00,
2013-06-05 17:15:00,84.3,28.6,29.50,East,90,1.7,4.3,13,-99.99,,,-99.99,WSDL version 342,2013-06-05 21:15:00,
2013-06-05 17:20:00,84.6,28.4,29.50,SSE,151,1.0,3.1,13,-99.99,,,-99.99,WSDL version 342,2013-06-05 21:20:00,
2013-06-05 17:25:00,85.0,28.7,29.50,SW,225,1.6,2.7,13,-99.99,,,-99.99,WSDL version 342,2013-06-05 21:25:00,
2013-06-05 17:30:00,84.9,28.6,29.50,NNW,344,0.0,2.7,13,-99.99,,,-99.99,WSDL version 342,2013-06-05 21:30:00,
2013-06-05 17:35:00,84.7,28.5,29.50,SSE,166,1.9,3.6,13,-99.99,,,-99.99,WSDL version 342,2013-06-05 21:35:00,
2013-06-05 17:40:00,84.6,28.4,29.53,East,84,1.2,3.6,13,-99.99,,,-99.99,WSDL version 342,2013-06-05 21:40:00,
2013-06-05 17:45:00,85.1,28.8,29.53,North,3,1.3,2.7,13,-99.99,,,-99.99,WSDL version 342,2013-06-05 21:45:00,
2013-06-05 17:51:00,84.6,28.4,29.53,East,100,1.1,2.7,13,-99.99,,,-99.99,WSDL version 342,2013-06-05 21:51:00,
2013-06-05 17:56:00,84.3,28.8,29.56,North,8,1.3,2.9,14,-99.99,,,-99.99,WSDL version 342,2013-06-05 21:56:00,
2013-06-05 18:02:00,83.8,29.6,29.56,NNE,30,1.4,2.7,14,-99.99,,,-99.99,WSDL version 342,2013-06-05 22:02:00,
2013-06-05 18:07:00,83.4,29.3,29.56,NNE,30,0.7,3.6,14,-99.99,,,-99.99,WSDL version 342,2013-06-05 22:07:00,
2013-06-05 18:12:00,82.8,28.8,29.53,ENE,59,0.6,3.6,14,-99.99,,,-99.99,WSDL version 342,2013-06-05 22:12:00,
2013-06-05 18:17:00,82.6,28.6,29.53,NNE,28,2.0,2.2,14,-99.99,,,-99.99,WSDL version 342,2013-06-05 22:17:00,
2013-06-05 18:23:00,82.0,28.1,29.47,NNE,28,0.8,2.2,14,-99.99,,,-99.99,WSDL version 342,2013-06-05 22:23:00,
2013-06-05 18:29:00,81.2,27.5,29.47,NE,45,1.2,2.0,14,-99.99,,,-99.99,WSDL version 342,2013-06-05 22:29:00,
2013-06-05 18:34:00,80.7,27.5,29.47,NE,45,1.8,3.1,15,-99.99,,,-99.99,WSDL version 342,2013-06-05 22:34:00,
2013-06-05 18:39:00,80.3,28.5,29.50,NNE,25,1.5,3.1,15,-99.99,,,-99.99,WSDL version 342,2013-06-05 22:39:00,
2013-06-05 18:44:00,79.7,28.0,29.50,NE,38,1.1,2.5,15,-99.99,,,-99.99,WSDL version 342,2013-06-05 22:44:00,
2013-06-05 18:49:00,79.3,27.7,29.50,NNE,32,1.2,2.5,15,-99.99,,,-99.99,WSDL version 342,2013-06-05 22:49:00,
2013-06-05 18:54:00,78.8,27.3,29.50,NNE,26,1.2,2.0,15,-99.99,,,-99.99,WSDL version 342,2013-06-05 22:54:00,
2013-06-05 18:59:00,78.2,26.8,29.50,NNE,16,1.6,2.2,15,-99.99,,,-99.99,WSDL version 342,2013-06-05 22:59:00,
2013-06-05 19:04:00,77.7,26.4,29.50,NE,45,1.1,2.2,15,-99.99,,,-99.99,WSDL version 342,2013-06-05 23:04:00,
2013-06-05 19:09:00,77.1,25.9,29.50,NE,45,1.3,2.0,15,-99.99,,,-99.99,WSDL version 342,2013-06-05 23:09:00,
2013-06-05 19:14:00,76.3,25.3,29.50,NE,42,1.3,2.0,15,-99.99,,,-99.99,WSDL version 342,2013-06-05 23:14:00,
2013-06-05 19:19:00,75.7,24.8,29.50,NE,41,1.4,2.2,15,-99.99,,,-99.99,WSDL version 342,2013-06-05 23:19:00,
2013-06-05 19:24:00,74.5,25.4,29.50,NE,45,1.3,2.2,16,-99.99,,,-99.99,WSDL version 342,2013-06-05 23:24:00,
2013-06-05 19:29:00,73.2,24.4,29.50,NE,45,0.5,2.2,16,-99.99,,,-99.99,WSDL version 342,2013-06-05 23:29:00,
2013-06-05 19:34:00,72.2,23.5,29.50,NE,45,1.2,2.5,16,-99.99,,,-99.99,WSDL version 342,2013-06-05 23:34:00,
2013-06-05 19:39:00,71.3,23.9,29.50,NE,45,0.6,2.5,17,-99.99,,,-99.99,WSDL version 342,2013-06-05 23:39:00,
2013-06-05 19:44:00,70.5,23.6,29.50,NE,45,1.1,2.5,17,-99.99,,,-99.99,WSDL version 342,2013-06-05 23:44:00,
2013-06-05 19:49:00,69.9,23.1,29.50,NE,45,1.0,2.0,17,-99.99,,,-99.99,WSDL version 342,2013-06-05 23:49:00,
2013-06-05 19:54:00,69.2,25.5,29.50,NE,45,1.1,2.0,20,-99.99,,,-99.99,WSDL version 342,2013-06-05 23:54:00,
2013-06-05 19:59:00,68.6,26.0,29.50,NE,37,1.5,2.2,20,-99.99,,,-99.99,WSDL version 342,2013-06-05 23:59:00,
2013-06-05 20:04:00,68.0,27.8,29.50,NE,45,0.4,2.5,22,-99.99,,,-99.99,WSDL version 342,2013-06-06 00:04:00,
2013-06-05 20:09:00,67.6,27.9,29.53,NE,38,1.2,2.5,23,-99.99,,,-99.99,WSDL version 342,2013-06-06 00:09:00,
2013-06-05 20:14:00,67.2,28.2,29.53,NE,56,1.0,2.5,23,-99.99,,,-99.99,WSDL version 342,2013-06-06 00:14:00,
2013-06-05 20:19:00,66.9,27.9,29.53,NE,51,1.3,2.5,23,-99.99,,,-99.99,WSDL version 342,2013-06-06 00:19:00,
2013-06-05 20:24:00,66.4,28.5,29.53,ENE,64,1.3,2.9,24,-99.99,,,-99.99,WSDL version 342,2013-06-06 00:24:00,
2013-06-05 20:29:00,66.1,28.3,29.53,NE,42,1.5,2.9,24,-99.99,,,-99.99,WSDL version 342,2013-06-06 00:29:00,
2013-06-05 20:34:00,65.9,28.1,29.53,NE,45,0.7,2.9,24,-99.99,,,-99.99,WSDL version 342,2013-06-06 00:34:00,
2013-06-05 20:39:00,65.6,28.1,29.53,NE,45,1.0,2.7,24,-99.99,,,-99.99,WSDL version 342,2013-06-06 00:39:00,
2013-06-05 20:44:00,65.3,28.1,29.53,NE,56,1.1,2.7,25,-99.99,,,-99.99,WSDL version 342,2013-06-06 00:44:00,
2013-06-05 20:49:00,64.9,28.3,29.53,ENE,68,0.0,2.7,25,-99.99,,,-99.99,WSDL version 342,2013-06-06 00:49:00,
2013-06-05 20:54:00,64.6,28.0,29.53,ENE,68,0.0,1.1,25,-99.99,,,-99.99,WSDL version 342,2013-06-06 00:54:00,
2013-06-05 20:59:00,64.3,28.2,29.53,ENE,68,0.0,0.9,26,-99.99,,,-99.99,WSDL version 342,2013-06-06 00:59:00,
2013-06-05 21:04:00,63.9,28.4,29.53,ENE,68,0.0,0.0,26,-99.99,,,-99.99,WSDL version 342,2013-06-06 01:04:00,
2013-06-05 21:09:00,63.6,29.0,29.56,North,-999,-999.0,-999.0,27,-99.99,,,-99.99,WSDL version 342,2013-06-06 01:09:00,
2013-06-05 21:14:00,63.3,29.2,29.56,North,-999,-999.0,-999.0,28,-99.99,,,-99.99,WSDL version 342,2013-06-06 01:14:00,
2013-06-05 21:19:00,63.0,29.4,29.56,North,-999,-999.0,-999.0,28,-99.99,,,-99.99,WSDL version 342,2013-06-06 01:19:00,
2013-06-05 21:24:00,62.7,29.6,29.56,North,-999,-999.0,-999.0,29,-99.99,,,-99.99,WSDL version 342,2013-06-06 01:24:00,
2013-06-05 21:29:00,62.5,29.8,29.56,North,-999,-999.0,-999.0,29,-99.99,,,-99.99,WSDL version 342,2013-06-06 01:29:00,
2013-06-05 21:34:00,62.1,30.1,29.56,North,-999,-999.0,-999.0,30,-99.99,,,-99.99,WSDL version 342,2013-06-06 01:34:00,
2013-06-05 21:39:00,61.9,29.8,29.56,North,-999,-999.0,-999.0,29,-99.99,,,-99.99,WSDL version 342,2013-06-06 01:39:00,
2013-06-05 21:44:00,61.7,29.9,29.56,North,-999,-999.0,-999.0,31,-99.99,,,-99.99,WSDL version 342,2013-06-06 01:44:00,
2013-06-05 21:49:00,61.3,29.7,29.56,NE,45,0.0,0.0,30,-99.99,,,-99.99,WSDL version 342,2013-06-06 01:49:00,
2013-06-05 21:54:00,61.3,30.4,29.56,NE,45,0.0,0.0,31,-99.99,,,-99.99,WSDL version 342,2013-06-06 01:54:00,
2013-06-05 21:59:00,61.0,30.5,29.56,NE,45,0.0,0.0,32,-99.99,,,-99.99,WSDL version 342,2013-06-06 01:59:00,
2013-06-05 22:04:00,60.9,30.8,29.56,NE,45,0.0,0.0,32,-99.99,,,-99.99,WSDL version 342,2013-06-06 02:04:00,
2013-06-05 22:09:00,60.7,31.4,29.56,NE,45,0.0,0.0,34,-99.99,,,-99.99,WSDL version 342,2013-06-06 02:09:00,
2013-06-05 22:14:00,60.5,31.6,29.56,NE,45,0.0,0.0,34,-99.99,,,-99.99,WSDL version 342,2013-06-06 02:14:00,
2013-06-05 22:19:00,60.3,31.9,29.56,NE,45,0.0,0.0,34,-99.99,,,-99.99,WSDL version 342,2013-06-06 02:19:00,
2013-06-05 22:24:00,60.1,31.6,29.56,NE,45,0.0,0.0,34,-99.99,,,-99.99,WSDL version 342,2013-06-06 02:24:00,
2013-06-05 22:29:00,59.8,31.4,29.56,NE,45,0.0,0.0,34,-99.99,,,-99.99,WSDL version 342,2013-06-06 02:29:00,
2013-06-05 22:34:00,59.6,32.0,29.56,NE,45,0.0,0.0,35,-99.99,,,-99.99,WSDL version 342,2013-06-06 02:34:00,
2013-06-05 22:39:00,59.4,31.8,29.56,NE,45,0.0,0.0,35,-99.99,,,-99.99,WSDL version 342,2013-06-06 02:39:00,
2013-06-05 22:44:00,59.3,31.9,29.56,NE,45,0.0,0.0,35,-99.99,,,-99.99,WSDL version 342,2013-06-06 02:44:00,
2013-06-05 22:49:00,59.2,31.8,29.56,North,-999,-999.0,-999.0,36,-99.99,,,-99.99,WSDL version 342,2013-06-06 02:49:00,
2013-06-05 22:54:00,59.0,31.6,29.59,North,-999,-999.0,-999.0,36,-99.99,,,-99.99,WSDL version 342,2013-06-06 02:54:00,
2013-06-05 22:59:00,58.8,32.1,29.59,NE,45,0.0,0.0,36,-99.99,,,-99.99,WSDL version 342,2013-06-06 02:59:00,
2013-06-05 23:04:00,58.6,32.1,29.59,NE,45,0.0,1.1,37,-99.99,,,-99.99,WSDL version 342,2013-06-06 03:04:00,
2013-06-05 23:09:00,58.5,32.3,29.56,NE,45,0.0,1.1,37,-99.99,,,-99.99,WSDL version 342,2013-06-06 03:09:00,
2013-06-05 23:14:00,58.3,32.2,29.56,NE,45,0.0,0.9,37,-99.99,,,-99.99,WSDL version 342,2013-06-06 03:14:00,
2013-06-05 23:19:00,58.1,32.5,29.56,NE,45,0.0,0.0,38,-99.99,,,-99.99,WSDL version 342,2013-06-06 03:19:00,
2013-06-05 23:24:00,58.0,32.4,29.56,NE,45,0.0,0.0,38,-99.99,,,-99.99,WSDL version 342,2013-06-06 03:24:00,
2013-06-05 23:29:00,57.9,32.7,29.56,NE,45,0.7,0.0,39,-99.99,,,-99.99,WSDL version 342,2013-06-06 03:29:00,
2013-06-05 23:34:00,57.7,33.4,29.56,NE,45,0.0,0.0,40,-99.99,,,-99.99,WSDL version 342,2013-06-06 03:34:00,
2013-06-05 23:39:00,57.6,33.1,29.56,NE,45,0.0,0.0,39,-99.99,,,-99.99,WSDL version 342,2013-06-06 03:39:00,
2013-06-05 23:44:00,57.6,33.4,29.56,NE,45,1.3,1.3,40,-99.99,,,-99.99,WSDL version 342,2013-06-06 03:44:00,
2013-06-05 23:49:00,57.4,33.5,29.56,NE,45,0.0,1.3,41,-99.99,,,-99.99,WSDL version 342,2013-06-06 03:49:00,
2013-06-05 23:54:00,57.3,33.8,29.56,NE,45,0.9,1.3,41,-99.99,,,-99.99,WSDL version 342,2013-06-06 03:54:00,
2013-06-05 23:59:00,57.2,33.9,29.56,NE,45,0.9,0.0,42,-99.99,,,-99.99,WSDL version 342,2013-06-06 03:59:00,